Lid_Strength_Index
-1 -0 0 3 10 10 12 10 8 8 8 7 6 7 8 7 9 12 3 1 0 0 -0 -1 -1 -1 -1 -1 -1 -1 -1 -1 -2 -1 -1 -2 -1 -1 -1 -1 -1 -1 -2 -2 -2 -2 -2 -2 -2
-0 0 2 5 12 14 12 8 9 8 7 6 6 6 7 8 5 4 3 1 0 0 -0 -0 -1 -1 -1 -1 -1 -1 -1 -2 -1 -1 -1 -2 -2 -2 -2 -1 -2 -2 -2 -2 -2 -2 -2 -2 -2
0 0 6 9 11 13 12 8 9 7 6 6 7 6 6 7 4 4 1 1 0 1 -0 -1 -2 -1 -1 -1 -1 -1 -2 -2 -2 -2 -2 -2 -2 -2 -2 -1 -1 -1 -2 -2 -2 -2 -2 -2 -2
2 4 5 11 12 9 9 9 8 7 7 6 6 7 5 3 4 2 1 1 1 1 -0 -1 -2 -2 -1 -2 -1 -2 -2 -1 -1 -2 -2 -2 -2 -2 -2 -1 -1 -1 -2 -2 -2 -2 -2 -1 -1
2 5 10 12 11 8 7 7 8 8 7 7 7 7 7 4 2 1 1 1 1 1 0 -0 -2 -2 -2 -2 -2 -2 -2 -2 -1 -2 -2 -2 -2 -1 -1 -1 -1 -1 -2 -2 -2 -2 -1 -1 -1
7 6 12 13 11 8 7 6 8 8 7 8 8 8 7 3 2 2 1 1 1 1 0 -0 -1 -2 -2 -2 -2 -2 -2 -2 -2 -2 -2 -2 -2 -2 -1 -1 -1 -2 -2 -2 -1 -1 -1 -1 -1
8 10 13 12 11 9 7 6 8 8 8 8 7 8 6 4 2 1 1 1 1 0 0 0 -0 -1 -1 -1 -1 -1 -1 -2 -2 -2 -2 -2 -2 -2 -2 -2 -1 -2 -1 -1 -1 -2 -2 -2 -2
6 9 12 11 11 10 6 6 6 7 8 6 6 8 9 4 2 1 1 1 1 1 0 1 0 0 0 -0 -1 -1 -1 -1 -2 -2 -2 -2 -2 -2 -2 -2 -2 -2 -2 -1 -1 -2 -2 -1 -1
4 11 14 12 11 9 6 7 6 6 7 7 7 5 4 2 2 2 3 2 2 1 1 1 0 0 0 0 -1 -1 -1 -1 -1 -1 -1 -1 0 -0 -1 -1 -1 -1 -2 -1 -1 -1 -1 -1 -1
8 12 12 8 7 8 6 7 7 7 7 8 7 4 3 3 3 4 4 4 3 2 2 1 1 1 1 -0 -0 0 -0 -0 -0 -0 -0 0 0 0 -1 -0 -1 -1 -1 -1 -1 -1 -1 -0 4
7 11 8 7 6 6 6 7 6 7 8 7 8 5 4 4 4 4 4 3 4 3 2 1 1 1 1 1 0 1 0 0 0 -0 0 0 0 1 -0 0 0 0 0 0 0 1 3 4 4
9 7 7 6 6 6 7 6 7 6 7 6 5 5 4 4 4 4 4 3 3 2 2 1 1 1 1 1 1 1 1 1 1 1 0 0 1 1 1 0 1 1 0 1 1 1 2 3 5
8 7 6 6 6 7 6 7 7 6 5 5 5 4 5 6 4 3 3 2 2 2 1 1 1 1 1 1 1 1 1 1 1 1 1 1 1 1 1 1 1 1 0 1 1 2 3 4 5
7 7 6 6 6 6 7 7 8 6 5 5 5 6 5 5 4 6 3 3 3 2 2 1 1 1 1 1 1 1 1 1 1 1 1 1 1 0 1 1 0 1 1 1 1 2 4 5 6
6 9 8 8 7 7 6 9 9 6 5 6 6 5 5 5 5 4 4 3 2 2 1 1 1 1 1 1 1 1 1 0 1 1 1 1 1 1 1 1 1 1 0 1 2 2 3 5 6
9 9 12 8 7 7 7 12 7 5 6 6 6 6 6 5 5 5 4 3 3 5 3 1 0 1 1 1 1 1 1 1 1 1 1 1 1 1 1 2 1 1 1 0 2 3 4 5 7
10 14 13 11 7 8 9 11 7 6 6 7 7 6 6 6 6 5 5 5 3 3 4 5 4 1 1 1 1 1 0 0 1 0 1 1 1 1 1 1 1 1 1 1 0 3 5 6 6
15 14 11 12 9 8 10 10 8 7 8 8 8 8 8 7 6 6 5 5 5 4 4 3 3 3 3 1 1 1 1 0 0 1 1 1 1 1 2 2 1 0 1 1 1 3 5 5 6
10 11 12 10 8 9 10 10 9 8 8 9 8 8 8 7 6 6 5 6 6 6 5 4 4 3 3 3 2 2 2 2 1 0 0 1 0 1 1 1 2 1 1 1 1 3 5 5 6
10 12 12 10 8 9 11 11 10 9 9 8 8 8 8 8 8 7 7 6 6 6 6 5 5 4 3 3 3 1 2 1 1 1 -0 -0 1 1 1 1 1 1 2 2 2 3 5 6 6
11 12 12 12 10 9 11 13 12 10 8 8 9 9 9 9 9 8 7 6 6 6 5 5 5 4 4 4 3 3 2 2 3 2 1 0 -0 1 1 1 2 2 2 2 2 3 4 6 7
12 9 10 11 13 16 11 19 13 11 11 11 11 11 10 9 7 6 6 6 6 5 4 3 3 4 4 5 5 5 4 3 2 1 1 1 1 0 0 1 1 1 2 2 2 2 3 6 7
11 9 10 11 13 14 13 16 14 12 14 12 11 10 9 8 7 6 6 5 5 4 4 3 3 4 4 4 5 6 5 4 3 1 2 2 1 1 1 0 1 1 1 1 2 3 3 4 6
8 10 11 12 13 19 14 14 15 13 12 12 11 10 9 8 7 6 5 5 5 5 4 4 4 4 4 4 4 5 6 6 5 3 2 3 3 1 1 1 0 1 1 1 1 3 2 4 5
9 13 19 20 20 20 13 15 13 12 11 9 9 9 9 8 8 7 6 6 6 6 5 5 5 5 5 5 5 5 5 5 6 5 5 3 2 2 2 2 2 1 0 1 1 2 2 4 4
12 13 18 21 22 19 14 17 14 12 9 9 8 8 8 8 7 6 6 6 6 5 5 5 5 5 5 5 5 5 5 5 4 4 4 4 4 2 2 1 2 2 1 0 1 2 2 2 3
13 16 11 16 16 19 17 15 12 11 11 10 10 9 8 8 7 6 6 7 6 6 6 6 6 6 6 6 6 5 5 4 4 4 3 3 2 1 2 2 1 2 1 1 1 1 2 2 3
11 10 16 16 22 21 17 16 16 13 12 11 11 9 8 7 7 6 7 7 7 6 6 7 7 7 7 6 6 6 5 4 4 3 3 3 3 2 3 2 3 2 1 1 2 2 3 3 4
13 14 13 14 16 21 20 18 13 12 11 11 10 8 8 7 7 7 7 7 7 8 8 8 7 7 7 7 7 6 5 4 4 4 4 4 3 3 3 3 3 2 2 2 3 3 4 4 5
10 12 12 17 18 17 18 17 11 11 10 9 9 8 7 6 7 7 8 8 8 9 9 8 8 8 8 8 8 7 6 5 4 5 5 4 4 4 4 4 4 4 4 4 4 4 4 4 6